Nordic Philip — 5BZH2 — position and weather

sailwx.info

Track history (hours):
 
Tides and Currents Weather Stations Pressure Air Temp Water Temp Dewpoint Dewpoint Depression Visibility Wind Speed Wind Dir Waves Ship Positions

Nordic Philip

Last reported at 2014-Nov-22 20:33 UTC. Time now 2014-Nov-22 21:33 UTC.
Position N 53°58' E 008°30'.

Length 151 m; draft 7.9 m.

Type: Ship (hazmat cat A). MMSI: 212018000.

Date/timePositionNaut miles runAvg speedWind from/ knotsBaromVisibWave heightAir tempDewpointWater temp
2014-Nov-22 20:33N 53°58' E 008°30'1515.2
2014-Nov-22 19:33N 53°59' E 008°04'8 7.9
2014-Nov-22 18:33N 53°51' E 008°01'1615.6
2014-Nov-22 17:33N 53°41' E 008°21'9 8.8
2014-Nov-22 16:33N 53°35' E 008°32'0 0.0
2014-Nov-22 15:30N 53°35' E 008°32'0 0.2
2014-Nov-22 14:33N 53°35' E 008°32'0 0.1
2014-Nov-22 13:33N 53°35' E 008°31'0 0.0
2014-Nov-22 12:33N 53°35' E 008°31'0 0.0
2014-Nov-22 11:33N 53°35' E 008°31'0 0.0
2014-Nov-22 10:33N 53°35' E 008°31'0 0.0
2014-Nov-22 09:33N 53°35' E 008°31'0 0.0
2014-Nov-22 08:33N 53°35' E 008°31'0 0.0
2014-Nov-22 07:33N 53°35' E 008°31'0 0.0
2014-Nov-22 06:33N 53°35' E 008°31'0 0.0
2014-Nov-22 05:33N 53°35' E 008°31'4 4.4
2014-Nov-22 04:33N 53°38' E 008°26'1413.6
2014-Nov-22 03:34N 53°47' E 008°09'1110.9
2014-Nov-22 02:33N 53°53' E 007°53'6 5.9
2014-Nov-22 01:33N 53°58' E 007°59'7 7.4
2014-Nov-22 00:33N 54°00' E 008°11'1615.5
2014-Nov-21 23:33N 53°57' E 008°37'1312.7
2014-Nov-21 22:33N 53°51' E 008°56'8 8.3
2014-Nov-21 21:33N 53°54' E 009°09'4 4.2
2014-Nov-21 20:33N 53°57' E 009°14'8 7.8
2014-Nov-21 19:33N 54°04' E 009°19'7 7.5
2014-Nov-21 18:33N 54°10' E 009°26'8 7.6
2014-Nov-21 17:33N 54°14' E 009°37'7 7.0
2014-Nov-21 16:33N 54°20' E 009°44'7 6.9
2014-Nov-21 15:33N 54°21' E 009°56'5 5.4
2014-Nov-21 14:33N 54°22' E 010°05'3 3.3
2014-Nov-21 13:33N 54°22' E 010°10'1111.0
2014-Nov-21 12:34N 54°31' E 010°22'4414.7
2014-Nov-21 09:33N 54°28' E 011°37'1615.6
2014-Nov-21 08:33N 54°26' E 012°04'8313.8
2014-Nov-21 02:33N 54°38' E 014°25'1616.2
2014-Nov-21 01:34N 54°43' E 014°51'1716.3
2014-Nov-21 00:33N 54°48' E 015°19'132 2.7
2014-Nov-19 00:04N 55°18' E 019°02'1116.3
2014-Nov-18 23:25N 55°14' E 018°45'1416.3
2014-Nov-18 22:33N 55°08' E 018°23'1616.0
2014-Nov-18 21:33N 55°02' E 017°57'11816.2
2014-Nov-18 14:15N 54°13' E 014°52'912.7
2014-Nov-18 13:33N 54°09' E 014°39'1312.6
2014-Nov-18 12:33N 54°02' E 014°20'8 8.5
2014-Nov-18 11:33N 53°54' E 014°16'7 7.0
2014-Nov-18 10:33N 53°48' E 014°21'1111.2
2014-Nov-18 09:33N 53°39' E 014°33'9 9.1
2014-Nov-18 08:33N 53°31' E 014°38'5 5.3
2014-Nov-18 07:33N 53°26' E 014°35'0 0.0
2014-Nov-18 06:33N 53°26' E 014°35'0 0.0
2014-Nov-18 05:33N 53°26' E 014°35'0 0.1
2014-Nov-18 04:31N 53°26' E 014°35'0 0.0
2014-Nov-17 18:07N 53°26' E 014°35'0 0.0
2014-Nov-17 17:31N 53°26' E 014°35'0 0.0
2014-Nov-17 16:28N 53°26' E 014°35'0 0.0
2014-Nov-17 15:31N 53°26' E 014°35'0 0.0
2014-Nov-17 14:31N 53°26' E 014°35'0 0.0
2014-Nov-17 13:31N 53°26' E 014°35'0 0.0
2014-Nov-17 12:31N 53°26' E 014°35'0 0.0
2014-Nov-17 11:31N 53°26' E 014°35'0 0.2
2014-Nov-17 10:34N 53°26' E 014°35'6 5.9
2014-Nov-17 09:34N 53°32' E 014°38'1010.0
2014-Nov-17 08:33N 53°41' E 014°31'1111.3
2014-Nov-17 07:34N 53°49' E 014°19'6 6.4
2014-Nov-17 06:33N 53°56' E 014°17'1211.8
2014-Nov-17 05:33N 54°07' E 014°13'15 6.1
2014-Nov-17 03:11N 54°19' E 013°59'61 8.7
2014-Nov-16 20:14N 54°31' E 012°17'811.6
2014-Nov-16 19:33N 54°25' E 012°09'1212.4
2014-Nov-16 18:33N 54°24' E 011°48'3811.3
2014-Nov-16 15:11N 54°33' E 010°45'812.1
2014-Nov-16 14:33N 54°32' E 010°32'1111.1
2014-Nov-16 13:33N 54°27' E 010°15'6 6.3
2014-Nov-16 12:32N 54°22' E 010°08'5 4.9
2014-Nov-16 11:33N 54°21' E 010°00'8 8.0
2014-Nov-16 10:33N 54°21' E 009°47'24 7.5
2014-Nov-16 07:25N 54°04' E 009°19'6 7.1
2014-Nov-16 06:33N 53°58' E 009°16'5 5.3
2014-Nov-16 05:33N 53°54' E 009°10'1 0.9
2014-Nov-16 04:34N 53°54' E 009°09'7 6.6
2014-Nov-16 03:33N 53°51' E 008°58'1414.4
2014-Nov-16 02:33N 53°57' E 008°36'1616.0
2014-Nov-16 01:33N 53°59' E 008°09'9 9.4
2014-Nov-16 00:33N 53°51' E 008°00'1615.8
2014-Nov-15 23:34N 53°41' E 008°21'8 7.8
2014-Nov-15 22:33N 53°36' E 008°31'0 0.0
2014-Nov-15 21:33N 53°36' E 008°31'0 0.0
2014-Nov-15 20:33N 53°36' E 008°31'0 0.0
2014-Nov-15 19:33N 53°36' E 008°31'0 0.0
2014-Nov-15 18:33N 53°36' E 008°31'0 0.0
2014-Nov-15 17:33N 53°36' E 008°31'0 0.0
2014-Nov-15 16:30N 53°36' E 008°31'0 0.0
2014-Nov-15 15:33N 53°36' E 008°31'1 0.9
2014-Nov-15 14:33N 53°35' E 008°32'0 0.1
2014-Nov-15 13:30N 53°35' E 008°32'0 0.0
2014-Nov-15 12:30N 53°35' E 008°32'0 0.0
2014-Nov-15 11:30N 53°35' E 008°32'0 0.0
2014-Nov-15 10:30N 53°35' E 008°32'0 0.0
2014-Nov-15 09:30N 53°35' E 008°32'0 0.0
2014-Nov-15 08:30N 53°35' E 008°32'0 0.0
2014-Nov-15 07:30N 53°35' E 008°32'0 0.0
2014-Nov-15 06:30N 53°35' E 008°32'0 0.0
2014-Nov-15 05:30N 53°35' E 008°32'0 0.0
2014-Nov-15 04:30N 53°35' E 008°32'0 0.0
2014-Nov-15 03:30N 53°35' E 008°32'0 0.0
2014-Nov-15 02:33N 53°35' E 008°32'2 1.6
2014-Nov-15 01:33N 53°36' E 008°30'1616.0
2014-Nov-15 00:33N 53°47' E 008°09'1211.6
2014-Nov-14 23:34N 53°55' E 007°56'1413.8
2014-Nov-14 22:33N 53°60' E 008°18'1616.3
2014-Nov-14 21:33N 53°53' E 008°43'1514.9
2014-Nov-14 20:33N 53°53' E 009°08'1413.9
2014-Nov-14 19:33N 53°44' E 009°27'1414.1
2014-Nov-14 18:34N 53°34' E 009°43'8 8.4
2014-Nov-14 17:33N 53°32' E 009°57'0 0.0
2014-Nov-14 16:32N 53°32' E 009°57'0 0.0
2014-Nov-14 15:32N 53°32' E 009°57'0 0.1
2014-Nov-14 14:29N 53°32' E 009°57'1 0.8
2014-Nov-14 12:33N 53°32' E 009°55'0 0.0
2014-Nov-14 11:29N 53°32' E 009°55'0 0.0
2014-Nov-14 10:32N 53°32' E 009°55'0 0.0
2014-Nov-14 09:33N 53°32' E 009°55'0 0.0
2014-Nov-14 08:32N 53°32' E 009°55'0 0.0
2014-Nov-14 07:33N 53°32' E 009°55'0 0.0
2014-Nov-14 06:29N 53°32' E 009°55'0 0.0
2014-Nov-14 05:32N 53°32' E 009°55'0 0.0
2014-Nov-14 04:33N 53°32' E 009°55'2 2.3
2014-Nov-14 03:33N 53°30' E 009°56'0 0.4
2014-Nov-14 02:33N 53°30' E 009°56'0 0.0
2014-Nov-14 01:30N 53°30' E 009°56'0 0.0
2014-Nov-14 00:33N 53°30' E 009°56'0 0.0
2014-Nov-13 23:33N 53°30' E 009°56'0 0.0
2014-Nov-13 22:33N 53°30' E 009°56'1 0.8
2014-Nov-13 21:34N 53°31' E 009°56'1 1.2
2014-Nov-13 20:33N 53°32' E 009°55'0 0.0
2014-Nov-13 19:29N 53°32' E 009°55'0 0.0
2014-Nov-13 18:29N 53°32' E 009°55'0 0.0
2014-Nov-13 16:29N 53°32' E 009°55'0 0.0
2014-Nov-13 15:29N 53°32' E 009°55'0 0.0
2014-Nov-13 14:29N 53°32' E 009°55'2 2.4
2014-Nov-13 13:33N 53°33' E 009°52'1010.1
2014-Nov-13 12:33N 53°36' E 009°36'1111.4
2014-Nov-13 11:33N 53°45' E 009°24'1110.9
2014-Nov-13 10:34N 53°53' E 009°11'2 1.8
2014-Nov-13 09:33N 53°54' E 009°09'1 1.3
2014-Nov-13 08:34N 53°55' E 009°10'4 3.6
2014-Nov-13 07:34N 53°57' E 009°14'8 8.4
2014-Nov-13 06:34N 54°05' E 009°19'8 7.6
2014-Nov-13 05:33N 54°11' E 009°28'7 7.2
2014-Nov-13 04:33N 54°16' E 009°37'6 5.9
2014-Nov-13 03:33N 54°20' E 009°44'8 7.7
2014-Nov-13 02:33N 54°21' E 009°57'6 6.0
2014-Nov-13 01:33N 54°22' E 010°07'3 2.7
2014-Nov-13 00:33N 54°23' E 010°11'1010.0
2014-Nov-12 23:33N 54°31' E 010°22'1312.9
2014-Nov-12 22:33N 54°35' E 010°43'1613.8
2014-Nov-12 21:26N 54°36' E 011°10'1315.1
2014-Nov-12 20:34N 54°31' E 011°30'  
Track history (hours):
 
Tides and Currents Weather Stations Pressure Air Temp Water Temp Dewpoint Dewpoint Depression Visibility Wind Speed Wind Dir Waves Ship Positions

Nordic Philip

Last reported at 2014-Nov-22 20:33 UTC. Time now 2014-Nov-22 21:33 UTC.
Position N 53°58' E 008°30'.

Length 151 m; draft 7.9 m.

Type: Ship (hazmat cat A). MMSI: 212018000.

Date/timePositionNaut miles runAvg speedWind from/ knotsBaromVisibWave heightAir tempDewpointWater temp
2014-Nov-22 20:33N 53°58' E 008°30'1515.2
2014-Nov-22 19:33N 53°59' E 008°04'8 7.9
2014-Nov-22 18:33N 53°51' E 008°01'1615.6
2014-Nov-22 17:33N 53°41' E 008°21'9 8.8
2014-Nov-22 16:33N 53°35' E 008°32'0 0.0
2014-Nov-22 15:30N 53°35' E 008°32'0 0.2
2014-Nov-22 14:33N 53°35' E 008°32'0 0.1
2014-Nov-22 13:33N 53°35' E 008°31'0 0.0
2014-Nov-22 12:33N 53°35' E 008°31'0 0.0
2014-Nov-22 11:33N 53°35' E 008°31'0 0.0
2014-Nov-22 10:33N 53°35' E 008°31'0 0.0
2014-Nov-22 09:33N 53°35' E 008°31'0 0.0
2014-Nov-22 08:33N 53°35' E 008°31'0 0.0
2014-Nov-22 07:33N 53°35' E 008°31'0 0.0
2014-Nov-22 06:33N 53°35' E 008°31'0 0.0
2014-Nov-22 05:33N 53°35' E 008°31'4 4.4
2014-Nov-22 04:33N 53°38' E 008°26'1413.6
2014-Nov-22 03:34N 53°47' E 008°09'1110.9
2014-Nov-22 02:33N 53°53' E 007°53'6 5.9
2014-Nov-22 01:33N 53°58' E 007°59'7 7.4
2014-Nov-22 00:33N 54°00' E 008°11'1615.5
2014-Nov-21 23:33N 53°57' E 008°37'1312.7
2014-Nov-21 22:33N 53°51' E 008°56'8 8.3
2014-Nov-21 21:33N 53°54' E 009°09'4 4.2
2014-Nov-21 20:33N 53°57' E 009°14'8 7.8
2014-Nov-21 19:33N 54°04' E 009°19'7 7.5
2014-Nov-21 18:33N 54°10' E 009°26'8 7.6
2014-Nov-21 17:33N 54°14' E 009°37'7 7.0
2014-Nov-21 16:33N 54°20' E 009°44'7 6.9
2014-Nov-21 15:33N 54°21' E 009°56'5 5.4
2014-Nov-21 14:33N 54°22' E 010°05'3 3.3
2014-Nov-21 13:33N 54°22' E 010°10'1111.0
2014-Nov-21 12:34N 54°31' E 010°22'4414.7
2014-Nov-21 09:33N 54°28' E 011°37'1615.6
2014-Nov-21 08:33N 54°26' E 012°04'8313.8
2014-Nov-21 02:33N 54°38' E 014°25'1616.2
2014-Nov-21 01:34N 54°43' E 014°51'1716.3
2014-Nov-21 00:33N 54°48' E 015°19'132 2.7
2014-Nov-19 00:04N 55°18' E 019°02'1116.3
2014-Nov-18 23:25N 55°14' E 018°45'1416.3
2014-Nov-18 22:33N 55°08' E 018°23'1616.0
2014-Nov-18 21:33N 55°02' E 017°57'11816.2
2014-Nov-18 14:15N 54°13' E 014°52'912.7
2014-Nov-18 13:33N 54°09' E 014°39'1312.6
2014-Nov-18 12:33N 54°02' E 014°20'8 8.5
2014-Nov-18 11:33N 53°54' E 014°16'7 7.0
2014-Nov-18 10:33N 53°48' E 014°21'1111.2
2014-Nov-18 09:33N 53°39' E 014°33'9 9.1
2014-Nov-18 08:33N 53°31' E 014°38'5 5.3
2014-Nov-18 07:33N 53°26' E 014°35'0 0.0
2014-Nov-18 06:33N 53°26' E 014°35'0 0.0
2014-Nov-18 05:33N 53°26' E 014°35'0 0.1
2014-Nov-18 04:31N 53°26' E 014°35'0 0.0
2014-Nov-17 18:07N 53°26' E 014°35'0 0.0
2014-Nov-17 17:31N 53°26' E 014°35'0 0.0
2014-Nov-17 16:28N 53°26' E 014°35'0 0.0
2014-Nov-17 15:31N 53°26' E 014°35'0 0.0
2014-Nov-17 14:31N 53°26' E 014°35'0 0.0
2014-Nov-17 13:31N 53°26' E 014°35'0 0.0
2014-Nov-17 12:31N 53°26' E 014°35'0 0.0
2014-Nov-17 11:31N 53°26' E 014°35'0 0.2
2014-Nov-17 10:34N 53°26' E 014°35'6 5.9
2014-Nov-17 09:34N 53°32' E 014°38'1010.0
2014-Nov-17 08:33N 53°41' E 014°31'1111.3
2014-Nov-17 07:34N 53°49' E 014°19'6 6.4
2014-Nov-17 06:33N 53°56' E 014°17'1211.8
2014-Nov-17 05:33N 54°07' E 014°13'15 6.1
2014-Nov-17 03:11N 54°19' E 013°59'61 8.7
2014-Nov-16 20:14N 54°31' E 012°17'811.6
2014-Nov-16 19:33N 54°25' E 012°09'1212.4
2014-Nov-16 18:33N 54°24' E 011°48'3811.3
2014-Nov-16 15:11N 54°33' E 010°45'812.1
2014-Nov-16 14:33N 54°32' E 010°32'1111.1
2014-Nov-16 13:33N 54°27' E 010°15'6 6.3
2014-Nov-16 12:32N 54°22' E 010°08'5 4.9
2014-Nov-16 11:33N 54°21' E 010°00'8 8.0
2014-Nov-16 10:33N 54°21' E 009°47'24 7.5
2014-Nov-16 07:25N 54°04' E 009°19'6 7.1
2014-Nov-16 06:33N 53°58' E 009°16'5 5.3
2014-Nov-16 05:33N 53°54' E 009°10'1 0.9
2014-Nov-16 04:34N 53°54' E 009°09'7 6.6
2014-Nov-16 03:33N 53°51' E 008°58'1414.4
2014-Nov-16 02:33N 53°57' E 008°36'1616.0
2014-Nov-16 01:33N 53°59' E 008°09'9 9.4
2014-Nov-16 00:33N 53°51' E 008°00'1615.8
2014-Nov-15 23:34N 53°41' E 008°21'8 7.8
2014-Nov-15 22:33N 53°36' E 008°31'0 0.0
2014-Nov-15 21:33N 53°36' E 008°31'0 0.0
2014-Nov-15 20:33N 53°36' E 008°31'0 0.0
2014-Nov-15 19:33N 53°36' E 008°31'0 0.0
2014-Nov-15 18:33N 53°36' E 008°31'0 0.0
2014-Nov-15 17:33N 53°36' E 008°31'0 0.0
2014-Nov-15 16:30N 53°36' E 008°31'0 0.0
2014-Nov-15 15:33N 53°36' E 008°31'1 0.9
2014-Nov-15 14:33N 53°35' E 008°32'0 0.1
2014-Nov-15 13:30N 53°35' E 008°32'0 0.0
2014-Nov-15 12:30N 53°35' E 008°32'0 0.0
2014-Nov-15 11:30N 53°35' E 008°32'0 0.0
2014-Nov-15 10:30N 53°35' E 008°32'0 0.0
2014-Nov-15 09:30N 53°35' E 008°32'0 0.0
2014-Nov-15 08:30N 53°35' E 008°32'0 0.0
2014-Nov-15 07:30N 53°35' E 008°32'0 0.0
2014-Nov-15 06:30N 53°35' E 008°32'0 0.0
2014-Nov-15 05:30N 53°35' E 008°32'0 0.0
2014-Nov-15 04:30N 53°35' E 008°32'0 0.0
2014-Nov-15 03:30N 53°35' E 008°32'0 0.0
2014-Nov-15 02:33N 53°35' E 008°32'2 1.6
2014-Nov-15 01:33N 53°36' E 008°30'1616.0
2014-Nov-15 00:33N 53°47' E 008°09'1211.6
2014-Nov-14 23:34N 53°55' E 007°56'1413.8
2014-Nov-14 22:33N 53°60' E 008°18'1616.3
2014-Nov-14 21:33N 53°53' E 008°43'1514.9
2014-Nov-14 20:33N 53°53' E 009°08'1413.9
2014-Nov-14 19:33N 53°44' E 009°27'1414.1
2014-Nov-14 18:34N 53°34' E 009°43'8 8.4
2014-Nov-14 17:33N 53°32' E 009°57'0 0.0
2014-Nov-14 16:32N 53°32' E 009°57'0 0.0
2014-Nov-14 15:32N 53°32' E 009°57'0 0.1
2014-Nov-14 14:29N 53°32' E 009°57'1 0.8
2014-Nov-14 12:33N 53°32' E 009°55'0 0.0
2014-Nov-14 11:29N 53°32' E 009°55'0 0.0
2014-Nov-14 10:32N 53°32' E 009°55'0 0.0
2014-Nov-14 09:33N 53°32' E 009°55'0 0.0
2014-Nov-14 08:32N 53°32' E 009°55'0 0.0
2014-Nov-14 07:33N 53°32' E 009°55'0 0.0
2014-Nov-14 06:29N 53°32' E 009°55'0 0.0
2014-Nov-14 05:32N 53°32' E 009°55'0 0.0
2014-Nov-14 04:33N 53°32' E 009°55'2 2.3
2014-Nov-14 03:33N 53°30' E 009°56'0 0.4
2014-Nov-14 02:33N 53°30' E 009°56'0 0.0
2014-Nov-14 01:30N 53°30' E 009°56'0 0.0
2014-Nov-14 00:33N 53°30' E 009°56'0 0.0
2014-Nov-13 23:33N 53°30' E 009°56'0 0.0
2014-Nov-13 22:33N 53°30' E 009°56'1 0.8
2014-Nov-13 21:34N 53°31' E 009°56'1 1.2
2014-Nov-13 20:33N 53°32' E 009°55'0 0.0
2014-Nov-13 19:29N 53°32' E 009°55'0 0.0
2014-Nov-13 18:29N 53°32' E 009°55'0 0.0
2014-Nov-13 16:29N 53°32' E 009°55'0 0.0
2014-Nov-13 15:29N 53°32' E 009°55'0 0.0
2014-Nov-13 14:29N 53°32' E 009°55'2 2.4
2014-Nov-13 13:33N 53°33' E 009°52'1010.1
2014-Nov-13 12:33N 53°36' E 009°36'1111.4
2014-Nov-13 11:33N 53°45' E 009°24'1110.9
2014-Nov-13 10:34N 53°53' E 009°11'2 1.8
2014-Nov-13 09:33N 53°54' E 009°09'1 1.3
2014-Nov-13 08:34N 53°55' E 009°10'4 3.6
2014-Nov-13 07:34N 53°57' E 009°14'8 8.4
2014-Nov-13 06:34N 54°05' E 009°19'8 7.6
2014-Nov-13 05:33N 54°11' E 009°28'7 7.2
2014-Nov-13 04:33N 54°16' E 009°37'6 5.9
2014-Nov-13 03:33N 54°20' E 009°44'8 7.7
2014-Nov-13 02:33N 54°21' E 009°57'6 6.0
2014-Nov-13 01:33N 54°22' E 010°07'3 2.7
2014-Nov-13 00:33N 54°23' E 010°11'1010.0
2014-Nov-12 23:33N 54°31' E 010°22'1312.9
2014-Nov-12 22:33N 54°35' E 010°43'1613.8
2014-Nov-12 21:26N 54°36' E 011°10'1315.1
2014-Nov-12 20:34N 54°31' E 011°30'  

Dump ship's entire track history